Location: ???????
(55.3754°N, 39.3545°E)
Time: 08:42:19
(UTC+00:00)

BREEZE-M R/B - Pass Details

Date: 14 April 2026
Orbit: 1039 x 14819 km, 50.7° (Epoch: 9 May)

Event Time Altitude Azimuth Distance (km) Brightness Sun altitude
Rises 20:52:45 0° 248° (WSW) 6,440 8.1 -24.7°
Reaches altitude 10° 20:57:44 10° 245° (WSW) 4,383 7.2 -24.8°
Maximum altitude 21:06:19 56° 170° (S) 1,342 4.3 -24.9°
Drops below altitude 10° 21:11:51 10° 92° (E) 2,865 6.4 -24.9°
Sets 21:14:21 0° 87° (E) 3,973 7.2 -24.9°
